Printer-friendly version

IAU Minor Planet Center

Minor Planet Center

MPEC 2006-L09 : 2006 LD

The following Minor Planet Electronic Circular may be linked-to from your own Web pages, but must not otherwise be redistributed electronically.


Read MPEC 2006-L08 Read MPEC 2006-L10


M.P.E.C. 2006-L09                                Issued 2006 June 2, 09:28 UT

     The Minor Planet Electronic Circulars contain information on unusual
         minor planets and routine data on comets.  They are published
   on behalf of Commission 20 of the International Astronomical Union by the
          Minor Planet Center, Smithsonian Astrophysical Observatory,
                          Cambridge, MA 02138, U.S.A.

                  Supported in part by the Brinson Foundation
                  Supported in part by the TABASGO Foundation
             Prepared using the Tamkin Foundation Computer Network

                              MPC@CFA.HARVARD.EDU
          URL http://cfa-www.harvard.edu/iau/mpc.html  ISSN 1523-6714

                                    2006 LD

Observations:
     K06L00D* C2006 06 01.24069 15 02 20.50 -21 56 24.5          19.3 V EL009G96
     K06L00D  C2006 06 01.24734 15 02 17.19 -21 57 52.5          19.2 V EL009G96
     K06L00D  C2006 06 01.25392 15 02 13.88 -21 59 19.6          19.3 V EL009G96
     K06L00D  C2006 06 01.26075 15 02 10.46 -22 00 49.8          19.6 V EL009G96
     K06L00D  C2006 06 01.29211 15 01 54.75 -22 07 43.5          19.6 V EL009G96
     K06L00D  C2006 06 01.29641 15 01 52.59 -22 08 40.2          19.6 V EL009G96
     K06L00D  C2006 06 01.30074 15 01 50.49 -22 09 36.9          19.5 V EL009G96
     K06L00D  C2006 06 01.30504 15 01 48.28 -22 10 33.6          19.5 V EL009G96
     K06L00D  C2006 06 02.18378 14 54 56.18 -25 21 25.7          20.1 R EL009734
     K06L00D  C2006 06 02.18893 14 54 53.59 -25 22 31.7          20.2 R EL009734
     K06L00D  C2006 06 02.20493 14 54 45.53 -25 25 55.7          19.7 R EL009734
     K06L00D  C2006 06 02.29928 14 53 58.77 -25 45 54.5          20.5 V EL009G96
     K06L00D  C2006 06 02.29958 14 53 58.66 -25 45 58.2          19.4 V EL009G96
     K06L00D  C2006 06 02.29988 14 53 58.45 -25 46 02.0          20.0 V EL009G96
     K06L00D  C2006 06 02.30019 14 53 58.34 -25 46 05.7          19.5 V EL009G96

Observer details:
734 Farpoint Observatory.  Observer D. Tibbets.  Measurer G. Hug.  0.7-m
    reflector + CCD.
G96 Mt. Lemmon Survey.  Observers A. D. Grauer, R. Hill.  Measurers
    E. C. Beshore, E. J. Christensen, G. J. Garradd, A. R. Gibbs, A. D. Grauer,
    R. E. Hill, R. A. Kowalski, S. M. Larson, R. H. McNaught.  1.5-m reflector
    + CCD.

Orbital elements:
2006 LD                                                  Earth MOID = 0.0945 AU
Epoch 2006 Mar. 6.0 TT = JDT 2453800.5                  MPC
M 291.70162              (2000.0)            P               Q
n   0.72150532     Peri.  187.56251     -0.26409759     +0.88443397
a   1.2311464      Node    67.77784     -0.86172587     -0.03719336
e   0.1007909      Incl.   24.55808     -0.43322164     -0.46518082
P   1.37           H   23.5           G   0.15           U   8
Residuals in seconds of arc
060601 G96  0.1-  0.0     060601 G96  0.3-  0.1-    060602 734  0.6+  0.6+
060601 G96  0.2+  0.0     060601 G96  0.6+  0.2+    060602 G96  0.2-  0.2-
060601 G96  0.0   0.1-    060601 G96  0.3-  0.0     060602 G96  0.4+  0.1-
060601 G96  0.1+  0.0     060602 734  0.4-  0.2-    060602 G96  0.4-  0.1-
060601 G96  0.1-  0.0     060602 734  0.1-  0.2-    060602 G96  0.2+  0.2+

Ephemeris:
2006 LD                  a,e,i = 1.23, 0.10, 25                  q = 1.1071
Date    TT    R. A. (2000) Decl.     Delta      r     Elong.  Phase     V
2006 05 25    15 53.41   +04 32.8    0.106    1.110   154.4    23.2    20.0
2006 06 04    14 40.36   -31 31.5    0.105    1.107   150.4    26.9    20.0
2006 06 14    13 20.36   -53 54.2    0.148    1.107   125.0    48.7    21.4
2006 06 24    12 18.03   -62 47.9    0.208    1.110   111.6    58.4    22.4
2006 07 04    11 40.13   -67 00.8    0.270    1.115   104.4    62.1    23.1

Timothy B. Spahr             (C) Copyright 2006 MPC           M.P.E.C. 2006-L09

Read MPEC 2006-L08 Read MPEC 2006-L10


Our Web policy. Index to the CBAT/MPC/ICQ pages.


Valid HTML 4.01!